Location: Eckley Miners' Village
(40.9930°N, 75.8630°W)
Time: 23:42:53
(UTC-04:00)

Vanguard 1 Rocket - Pass Details

Date: 21 March 2026
Orbit: 654 x 4213 km, 34.3° (Epoch: 20 April)

Event Time Altitude Azimuth Distance (km) Brightness Sun altitude
Exits shadow 04:13:33 20° 168° (SSE) 3,084 9.9 -31.6°
Maximum altitude 04:14:40 20° 159° (SSE) 2,926 9.8 -31.4°
Drops below altitude 10° 04:19:51 10° 114° (ESE) 3,000 10.4 -30.6°
Sets 04:22:47 0° 97° (E) 3,617 11.2 -30.1°
